Faribault, MN

4:00 PM CST on February 08, 2016 (GMT -0600)
Faribault Municipal

Weather History for KFBL - March, 2013

Change the Weather History Date:

Wednesday, March 27, 2013

  Actual Average (WUND) Record (WUND)
Temperature  
Mean Temperature 24 °F -  
Max Temperature 37 °F - - (-1)
Min Temperature 12 °F - - (-1)
Degree Days  
Heating Degree Days 40    
Moisture  
Dew Point 19 °F    
Average Humidity 77    
Maximum Humidity 100    
Minimum Humidity 45    
Precipitation  
Precipitation 0.00 in - - ()
Sea Level Pressure  
Sea Level Pressure 30.32 in    
Wind  
Wind Speed 1 mph (SW)    
Max Wind Speed 7 mph    
Max Gust Speed -    
Visibility 9 miles    
Events Fog    
Averages and records for this station are not official NWS values.
T = Trace of Precipitation, MM = Missing Value Source: NWS Daily Summary

Daily Weather History Graph

Daily Weather History Graph

Search for Another Location

Airport or City:

Trip Planner

Search our weather history database for the weather conditions in past years. The results will help you decide how hot, cold, wet, or windy it might be!

Date:

Astronomy

Mar. 27, 2013 Rise Set
Actual Time 7:03 AM CDT 7:34 PM CDT
Civil Twilight 6:33 AM CDT 8:03 PM CDT
Nautical Twilight 5:59 AM CDT 8:38 PM CDT
Astronomical Twilight 5:24 AM CDT 9:14 PM CDT
Moon 8:22 PM CDT (3/27) 6:52 AM CDT (3/27)
Length of Visible Light 13h 29m
Length of Day
12h 31m
Full, 100% of the Moon is Illuminated
Mar 27
Full
Apr 2
Last Quarter
Apr 10
New
Apr 18
First Quarter
Apr 25
Full

Hourly Weather History & Observations

Time (CDT) Temp. Windchill Dew Point Humidity Pressure Visibility Wind Dir Wind Speed Gust Speed Precip Events Conditions
12:14 AM 19.4 °F - 17.6 °F 93% 30.30 in 10.0 mi Calm Calm - N/A   Clear
12:34 AM 19.4 °F - 17.6 °F 93% 30.30 in 10.0 mi Calm Calm - N/A   Clear
12:54 AM 19.4 °F - 19.4 °F 100% 30.30 in 10.0 mi Calm Calm - N/A   Clear
1:14 AM 19.4 °F - 19.4 °F 100% 30.31 in 10.0 mi Calm Calm - N/A   Clear
1:34 AM 19.4 °F - 19.4 °F 100% 30.31 in 10.0 mi Calm Calm - N/A   Clear
1:54 AM 17.6 °F - 17.6 °F 100% 30.31 in 10.0 mi Calm Calm - N/A   Clear
2:14 AM 17.6 °F - 17.6 °F 100% 30.31 in 10.0 mi Calm Calm - N/A   Clear
2:34 AM 15.8 °F - 15.8 °F 100% 30.30 in 10.0 mi Calm Calm - N/A   Clear
2:54 AM 15.8 °F - 15.8 °F 100% 30.30 in 10.0 mi Calm Calm - N/A   Clear
3:14 AM 17.6 °F - 17.6 °F 100% 30.30 in 5.0 mi Calm Calm - N/A   Clear
3:34 AM 15.8 °F - 15.8 °F 100% 30.30 in 7.0 mi Calm Calm - N/A   Clear
3:54 AM 15.8 °F - 15.8 °F 100% 30.30 in 7.0 mi Calm Calm - N/A   Clear
4:14 AM 15.8 °F - 15.8 °F 100% 30.30 in 4.0 mi Calm Calm - N/A   Clear
4:34 AM 15.8 °F - 15.8 °F 100% 30.30 in 7.0 mi Calm Calm - N/A   Clear
4:54 AM 17.6 °F - 15.8 °F 93% 30.30 in 7.0 mi Calm Calm - N/A   Clear
5:14 AM 15.8 °F - 14.0 °F 93% 30.30 in 10.0 mi Calm Calm - N/A   Clear
5:34 AM 15.8 °F - 15.8 °F 100% 30.31 in 7.0 mi Calm Calm - N/A   Scattered Clouds
5:54 AM 14.0 °F - 14.0 °F 100% 30.31 in 3.0 mi Calm Calm - N/A   Scattered Clouds
6:14 AM 15.8 °F - 14.0 °F 93% 30.31 in 0.2 mi Calm Calm - N/A Fog Light Freezing Fog
6:34 AM 15.8 °F - 14.0 °F 93% 30.31 in 0.5 mi Calm Calm - N/A Fog Light Freezing Fog
6:54 AM 15.8 °F - 15.8 °F 100% 30.31 in 0.5 mi Calm Calm - N/A Fog Light Freezing Fog
7:14 AM 14.0 °F - 12.2 °F 93% 30.31 in 4.0 mi Calm Calm - N/A   Clear
7:33 AM 12.2 °F - 12.2 °F 100% 30.32 in 2.5 mi Calm Calm - N/A   Clear
7:54 AM 15.8 °F - 14.0 °F 93% 30.32 in 5.0 mi Calm Calm - N/A   Clear
8:14 AM 15.8 °F - 15.8 °F 100% 30.32 in 5.0 mi Calm Calm - N/A   Clear
8:33 AM 19.4 °F - 19.4 °F 100% 30.32 in 5.0 mi Calm Calm - N/A   Clear
8:54 AM 21.2 °F - 21.2 °F 100% 30.32 in 5.0 mi Calm Calm - N/A   Clear
9:14 AM 24.8 °F - 24.8 °F 100% 30.32 in 7.0 mi Calm Calm - N/A   Clear
9:33 AM 24.8 °F - 24.8 °F 100% 30.32 in 7.0 mi Calm Calm - N/A   Clear
9:54 AM 28.4 °F - 24.8 °F 86% 30.32 in 10.0 mi Calm Calm - N/A   Clear
10:14 AM 30.2 °F - 23.0 °F 75% 30.33 in 10.0 mi Calm Calm - N/A   Clear
10:34 AM 32.0 °F - 19.4 °F 60% 30.34 in 10.0 mi Calm Calm - N/A   Clear
10:54 AM 33.8 °F - 17.6 °F 52% 30.34 in 10.0 mi Calm Calm - N/A   Clear
11:14 AM 35.6 °F - 17.6 °F 48% 30.34 in 10.0 mi Calm Calm - N/A   Clear
11:34 AM 35.6 °F 32.8 °F 19.4 °F 52% 30.35 in 10.0 mi WSW 3.5 mph - N/A   Clear
11:54 AM 35.6 °F - 19.4 °F 52% 30.35 in 10.0 mi Calm Calm - N/A   Clear
12:14 PM 35.6 °F - 19.4 °F 52% 30.34 in 10.0 mi Calm Calm - N/A   Clear
12:34 PM 37.4 °F 33.8 °F 19.4 °F 48% 30.34 in 10.0 mi SSW 4.6 mph - N/A   Clear
12:54 PM 37.4 °F 32.8 °F 19.4 °F 48% 30.34 in 10.0 mi SW 5.8 mph - N/A   Clear
1:14 PM 37.4 °F 32.8 °F 17.6 °F 45% 30.34 in 10.0 mi SW 5.8 mph - N/A   Clear
1:34 PM 37.4 °F 33.8 °F 19.4 °F 48% 30.34 in 10.0 mi SW 4.6 mph - N/A   Clear
1:54 PM 37.4 °F 32.1 °F 19.4 °F 48% 30.33 in 10.0 mi SW 6.9 mph - N/A   Clear
2:14 PM 37.4 °F 32.8 °F 19.4 °F 48% 30.33 in 10.0 mi SSW 5.8 mph - N/A   Clear
2:34 PM 37.4 °F 32.8 °F 19.4 °F 48% 30.32 in 10.0 mi SW 5.8 mph - N/A   Scattered Clouds
2:54 PM 37.4 °F 32.1 °F 21.2 °F 52% 30.32 in 10.0 mi SW 6.9 mph - N/A   Clear
3:14 PM 37.4 °F 32.8 °F 21.2 °F 52% 30.32 in 10.0 mi SSW 5.8 mph - N/A   Clear
3:34 PM 37.4 °F 33.8 °F 21.2 °F 52% 30.32 in 10.0 mi SW 4.6 mph - N/A   Clear
3:54 PM 37.4 °F 32.8 °F 21.2 °F 52% 30.31 in 10.0 mi SSW 5.8 mph - N/A   Clear
4:14 PM 37.4 °F 32.8 °F 21.2 °F 52% 30.31 in 10.0 mi SW 5.8 mph - N/A   Scattered Clouds
4:34 PM 37.4 °F 33.8 °F 21.2 °F 52% 30.31 in 10.0 mi SSW 4.6 mph - N/A   Clear
4:54 PM 37.4 °F 34.9 °F 23.0 °F 56% 30.31 in 10.0 mi WSW 3.5 mph - N/A   Clear
5:14 PM 37.4 °F 34.9 °F 21.2 °F 52% 30.30 in 10.0 mi SW 3.5 mph - N/A   Clear
5:34 PM 37.4 °F 33.8 °F 23.0 °F 56% 30.30 in 10.0 mi SW 4.6 mph - N/A   Clear
5:54 PM 37.4 °F 33.8 °F 21.2 °F 52% 30.30 in 10.0 mi SE 4.6 mph - N/A   Clear
6:14 PM 37.4 °F - 21.2 °F 52% 30.30 in 10.0 mi Calm Calm - N/A   Clear
6:34 PM 37.4 °F 34.9 °F 21.2 °F 52% 30.30 in 10.0 mi South 3.5 mph - N/A   Clear
6:54 PM 35.6 °F 32.8 °F 21.2 °F 56% 30.30 in 10.0 mi South 3.5 mph - N/A   Clear
7:14 PM 35.6 °F - 19.4 °F 52% 30.30 in 10.0 mi Calm Calm - N/A   Clear
7:34 PM 33.8 °F - 19.4 °F 56% 30.30 in 10.0 mi Calm Calm - N/A   Clear
7:54 PM 33.8 °F - 19.4 °F 56% 30.30 in 10.0 mi Calm Calm - N/A   Clear
8:14 PM 30.2 °F - 21.2 °F 69% 30.30 in 10.0 mi Calm Calm - N/A   Clear
8:34 PM 28.4 °F - 21.2 °F 74% 30.30 in 10.0 mi Calm Calm - N/A   Clear
8:53 PM 26.6 °F - 21.2 °F 80% 30.31 in 10.0 mi Calm Calm - N/A   Clear
9:14 PM 26.6 °F - 21.2 °F 80% 30.32 in 10.0 mi Calm Calm - N/A   Clear
9:34 PM 26.6 °F - 21.2 °F 80% 30.32 in 10.0 mi Calm Calm - N/A   Clear
9:54 PM 24.8 °F - 21.2 °F 86% 30.33 in 10.0 mi Calm Calm - N/A   Clear
10:14 PM 24.8 °F - 21.2 °F 86% 30.33 in 10.0 mi Calm Calm - N/A   Clear
10:34 PM 24.8 °F - 21.2 °F 86% 30.33 in 10.0 mi Calm Calm - N/A   Clear
10:53 PM 24.8 °F - 21.2 °F 86% 30.33 in 10.0 mi Calm Calm - N/A   Clear
11:14 PM 21.2 °F - 21.2 °F 100% 30.33 in 10.0 mi Calm Calm - N/A   Clear
11:34 PM 24.8 °F - 21.2 °F 86% 30.33 in 10.0 mi Calm Calm - N/A   Clear
11:53 PM 21.2 °F - 21.2 °F 100% 30.33 in 10.0 mi Calm Calm - N/A   Clear